• In Netherlands
  • List of Countries
  • For 7 days
  • Water Temperature
  • Satellite Maps
  • Weather Map
  • Weather Widgets
  • user-avatar
    Login

    Hourly Weather Solden

    Today, 19 August, Saturday

    Time Temperature Precipitation Wind Pressure Humidity
    00:00 +10°C° 0.5 mm 1 mps 585 mmHg 93%
    01:00 +9°C° 0.5 mm 1 mps 585 mmHg 94%
    02:00 +9°C° 0.8 mm 1 mps 585 mmHg 94%
    03:00 +9°C° 0.8 mm 1 mps 585 mmHg 94%
    04:00 +9°C° 0.8 mm 1 mps 585 mmHg 93%
    05:00 +9°C° 0.7 mm 1 mps 585 mmHg 92%
    06:00 +10°C° 0.7 mm 1 mps 585 mmHg 91%
    07:00 +10°C° 0.7 mm 1 mps 586 mmHg 89%
    08:00 +11°C° 0.8 mm 1 mps 586 mmHg 86%
    09:00 +11°C° 0.8 mm 1 mps 586 mmHg 83%
    10:00 +12°C° 0.8 mm 1 mps 587 mmHg 80%
    11:00 +12°C° 1.2 mm 1 mps 587 mmHg 80%
    12:00 +12°C° 1.2 mm 2 mps 587 mmHg 80%
    13:00 +12°C° 1.2 mm 2 mps 587 mmHg 81%
    14:00 +12°C° 1.5 mm 1 mps 586 mmHg 81%
    15:00 +12°C° 1.5 mm 1 mps 586 mmHg 81%
    16:00 +11°C° 1.5 mm 1 mps 586 mmHg 82%
    17:00 +9°C° 1.3 mm 2 mps 586 mmHg 84%
    18:00 +8°C° 1.3 mm 2 mps 585 mmHg 87%
    19:00 +7°C° 1.3 mm 2 mps 585 mmHg 89%
    20:00 +6°C° 0.4 mm 2 mps 585 mmHg 90%
    21:00 +5°C° 0.4 mm 2 mps 585 mmHg 91%
    22:00 +5°C° 0.4 mm 2 mps 585 mmHg 92%
    23:00 +4°C° 0 mm 2 mps 585 mmHg 92%

    Tomorrow, 20 August, Sunday

    Time Temperature Precipitation Wind Pressure Humidity
    00:00 +4°C° 0 mm 2 mps 585 mmHg 92%
    01:00 +3°C° 0 mm 2 mps 585 mmHg 92%
    02:00 +3°C° 0 mm 2 mps 584 mmHg 92%
    03:00 +3°C° 0 mm 2 mps 584 mmHg 92%
    04:00 +2°C° 0 mm 2 mps 584 mmHg 92%
    05:00 +3°C° 0 mm 2 mps 585 mmHg 89%
    06:00 +3°C° 0 mm 2 mps 585 mmHg 87%
    07:00 +4°C° 0 mm 2 mps 586 mmHg 84%
    08:00 +6°C° 0 mm 2 mps 587 mmHg 74%
    09:00 +8°C° 0 mm 2 mps 587 mmHg 64%
    10:00 +9°C° 0 mm 2 mps 588 mmHg 55%
    11:00 +12°C° 0 mm 2 mps 589 mmHg 49%
    12:00 +13°C° 0 mm 2 mps 589 mmHg 44%
    13:00 +14°C° 0 mm 2 mps 590 mmHg 39%
    14:00 +14°C° 0 mm 2 mps 590 mmHg 39%
    15:00 +14°C° 0 mm 2 mps 589 mmHg 40%
    16:00 +14°C° 0 mm 2 mps 589 mmHg 40%
    17:00 +12°C° 0 mm 2 mps 589 mmHg 50%
    18:00 +9°C° 0 mm 2 mps 588 mmHg 60%
    19:00 +8°C° 0 mm 1 mps 587 mmHg 70%
    20:00 +7°C° 0 mm 1 mps 587 mmHg 74%
    21:00 +6°C° 0 mm 1 mps 587 mmHg 79%
    22:00 +5°C° 0 mm 1 mps 587 mmHg 84%
    23:00 +4°C° 0 mm 1 mps 586 mmHg 84%

    Day after tomorrow, 21 August, Monday

    Time Temperature Precipitation Wind Pressure Humidity
    00:00 +4°C° 0 mm 1 mps 586 mmHg 85%
    01:00 +3°C° 0 mm 1 mps 586 mmHg 86%
    02:00 +3°C° 0 mm 1 mps 586 mmHg 85%
    03:00 +2°C° 0 mm 1 mps 585 mmHg 84%
    04:00 +2°C° 0 mm 1 mps 585 mmHg 84%
    05:00 +3°C° 0 mm 1 mps 586 mmHg 78%
    06:00 +4°C° 0 mm 1 mps 586 mmHg 72%
    07:00 +5°C° 0 mm 1 mps 587 mmHg 67%
    08:00 +8°C° 0 mm 1 mps 588 mmHg 56%
    09:00 +11°C° 0 mm 1 mps 589 mmHg 46%
    10:00 +13°C° 0 mm 1 mps 590 mmHg 36%
    11:00 +14°C° 0 mm 1 mps 591 mmHg 34%
    12:00 +15°C° 0 mm 2 mps 591 mmHg 32%
    13:00 +16°C° 0 mm 2 mps 591 mmHg 31%
    14:00 +16°C° 0 mm 2 mps 591 mmHg 33%
    15:00 +15°C° 0 mm 2 mps 590 mmHg 35%
    16:00 +15°C° 0 mm 2 mps 590 mmHg 37%
    17:00 +13°C° 0 mm 2 mps 589 mmHg 48%
    18:00 +10°C° 0 mm 2 mps 588 mmHg 60%
    19:00 +8°C° 0 mm 1 mps 587 mmHg 72%
    20:00 +7°C° 0 mm 1 mps 587 mmHg 76%
    21:00 +6°C° 0 mm 1 mps 587 mmHg 81%
    22:00 +5°C° 0 mm 1 mps 587 mmHg 85%
    23:00 +4°C° 0 mm 1 mps 586 mmHg 85%

    22 August, Tuesday

    Time Temperature Precipitation Wind Pressure Humidity
    00:00 +4°C° 0 mm 1 mps 586 mmHg 85%
    01:00 +4°C° 0 mm 1 mps 586 mmHg 86%
    02:00 +3°C° 0 mm 1 mps 586 mmHg 84%
    03:00 +3°C° 0 mm 1 mps 586 mmHg 82%
    04:00 +3°C° 0 mm 1 mps 585 mmHg 81%
    05:00 +5°C° 0 mm 1 mps 586 mmHg 75%
    06:00 +6°C° 0 mm 1 mps 587 mmHg 69%
    07:00 +6°C° 0 mm 0 mps 588 mmHg 63%
    08:00 +10°C° 0 mm 1 mps 589 mmHg 56%
    09:00 +12°C° 0 mm 1 mps 589 mmHg 48%
    10:00 +14°C° 0 mm 1 mps 590 mmHg 41%
    11:00 +15°C° 0 mm 1 mps 590 mmHg 40%
    12:00 +16°C° 0 mm 2 mps 591 mmHg 40%
    13:00 +17°C° 0 mm 2 mps 591 mmHg 39%
    14:00 +16°C° 0 mm 2 mps 590 mmHg 41%
    15:00 +16°C° 0 mm 2 mps 590 mmHg 43%
    16:00 +16°C° 0 mm 3 mps 590 mmHg 46%
    17:00 +14°C° 0 mm 2 mps 589 mmHg 56%
    18:00 +12°C° 0 mm 2 mps 588 mmHg 67%
    19:00 +10°C° 0 mm 1 mps 587 mmHg 78%
    20:00 +9°C° 0 mm 1 mps 587 mmHg 82%
    21:00 +7°C° 0 mm 1 mps 586 mmHg 86%
    22:00 +6°C° 0 mm 1 mps 586 mmHg 89%
    23:00 +6°C° 0 mm 1 mps 586 mmHg 89%

    23 August, Wednesday

    Time Temperature Precipitation Wind Pressure Humidity
    00:00 +6°C° 0 mm 1 mps 585 mmHg 88%
    01:00 +5°C° 0 mm 1 mps 585 mmHg 87%
    02:00 +5°C° 0 mm 1 mps 585 mmHg 85%
    03:00 +5°C° 0 mm 1 mps 585 mmHg 84%
    04:00 +5°C° 0 mm 1 mps 584 mmHg 82%
    05:00 +7°C° 0 mm 1 mps 585 mmHg 77%
    06:00 +8°C° 0 mm 1 mps 586 mmHg 72%
    07:00 +9°C° 0 mm 1 mps 587 mmHg 67%
    08:00 +12°C° 0 mm 1 mps 588 mmHg 58%
    09:00 +14°C° 0 mm 1 mps 589 mmHg 48%
    10:00 +18°C° 0 mm 1 mps 590 mmHg 39%
    11:00 +17°C° 0 mm 2 mps 590 mmHg 37%
    12:00 +18°C° 0 mm 2 mps 590 mmHg 36%
    13:00 +19°C° 0 mm 2 mps 590 mmHg 34%
    14:00 +18°C° 0.2 mm 2 mps 590 mmHg 36%
    15:00 +18°C° 0.2 mm 2 mps 590 mmHg 39%
    16:00 +17°C° 0.2 mm 2 mps 589 mmHg 41%
    17:00 +15°C° 0.1 mm 2 mps 588 mmHg 51%
    18:00 +13°C° 0.1 mm 2 mps 587 mmHg 61%
    19:00 +11°C° 0.1 mm 1 mps 587 mmHg 71%
    20:00 +10°C° 0 mm 1 mps 586 mmHg 73%
    21:00 +8°C° 0 mm 1 mps 586 mmHg 76%
    22:00 +7°C° 0 mm 1 mps 586 mmHg 79%
    23:00 +7°C° 0 mm 1 mps 586 mmHg 78%

    24 August, Thursday

    Time Temperature Precipitation Wind Pressure Humidity
    00:00 +7°C° 0 mm 1 mps 585 mmHg 77%
    01:00 +6°C° 0 mm 1 mps 585 mmHg 76%
    02:00 +6°C° 0 mm 1 mps 585 mmHg 74%
    03:00 +6°C° 0 mm 1 mps 585 mmHg 72%
    04:00 +6°C° 0 mm 1 mps 585 mmHg 70%
    05:00 +7°C° 0 mm 1 mps 585 mmHg 66%
    06:00 +9°C° 0 mm 1 mps 586 mmHg 63%
    07:00 +10°C° 0 mm 1 mps 587 mmHg 59%
    08:00 +13°C° 0 mm 1 mps 588 mmHg 50%
    09:00 +15°C° 0 mm 1 mps 589 mmHg 42%
    10:00 +19°C° 0 mm 1 mps 591 mmHg 33%
    11:00 +19°C° 0 mm 1 mps 591 mmHg 32%
    12:00 +19°C° 0 mm 1 mps 591 mmHg 32%
    13:00 +20°C° 0 mm 1 mps 591 mmHg 31%
    14:00 +19°C° 0 mm 1 mps 590 mmHg 34%
    15:00 +19°C° 0 mm 1 mps 590 mmHg 37%
    16:00 +18°C° 0 mm 1 mps 590 mmHg 40%
    17:00 +15°C° 0.1 mm 1 mps 589 mmHg 52%
    18:00 +13°C° 0.1 mm 1 mps 588 mmHg 64%
    19:00 +10°C° 0.1 mm 1 mps 587 mmHg 76%
    20:00 +10°C° 0.1 mm 1 mps 587 mmHg 78%
    21:00 +9°C° 0.1 mm 1 mps 587 mmHg 79%
    22:00 +9°C° 0.1 mm 1 mps 587 mmHg 81%
    23:00 +9°C° 0 mm 1 mps 587 mmHg 83%
    Show more